This demonstration page uses our WeatherBlox Daily Observations layout. Learn more.

Left ArrowRight Arrow

34.74481, -87.66753

Hourly Observations for September 27, 2019

Temp ( °F °C ) Dew Point ( °F °C ) Humidity (%) Winds ( mph kmh ) Pressure ( in mb ) Visibility ( mi km ) Precip ( " mm )
12:53 am 00:53 Clear 70 21.1 67 19.4 90 90 Calm 29.92 1013 10 16 0.00 0.00
1:53 am 01:53 Clear 71 21.7 68 20 90 90 Calm 29.91 1013 9 14 0.00 0.00
2:53 am 02:53 Clear with Mist and Fog 69 20.6 66 18.9 90 90 Calm 29.91 1013 5 8 0.00 0.00
3:53 am 03:53 Clear with Mist and Fog 69 20.6 66 18.9 90 90 Calm 29.91 1013 6 10 0.00 0.00
4:53 am 04:53 Clear with Mist and Fog 69 20.6 67 19.4 93 93 Calm 29.93 1013 5 8 0.00 0.00
5:53 am 05:53 Clear with Mist and Fog 70 21.1 67 19.4 90 90 ENE 3 6 29.94 1014 5 8 0.00 0.00
6:53 am 06:53 Sunny with Mist and Fog 70 21.1 67 19.4 90 90 Calm 29.96 1015 4 6 0.00 0.00
7:53 am 07:53 Sunny with Mist and Fog 73 22.8 69 20.6 87 87 Calm 29.97 1015 6 10 0.00 0.00
9:53 am 09:53 Sunny 86 30 68 20 55 55 S 6 9 29.98 1015 10 16 0.00 0.00
10:53 am 10:53 Mostly Sunny 90 32.2 67 19.4 47 47 S 7 11 29.97 1015 10 16 0.00 0.00
11:53 am 11:53 Sunny 92 33.3 66 18.9 43 43 S 6 9 29.96 1015 10 16 0.00 0.00
12:53 pm 12:53 Sunny 95 35 65 18.3 37 37 SW 9 15 29.93 1014 10 16 0.00 0.00
1:53 pm 13:53 Sunny 95 35 65 18.3 37 37 SSW 7 11 29.91 1013 10 16 0.00 0.00
2:53 pm 14:53 Partly Cloudy 95 35 65 18.3 37 37 SW 10 17 29.89 1012 10 16 0.00 0.00
3:53 pm 15:53 Sunny 96 35.6 64 17.8 35 35 VRB 7 11 29.87 1012 10 16 0.00 0.00
4:53 pm 16:53 Sunny 96 35.6 63 17.2 34 34 SW 9 15 29.86 1011 10 16 0.00 0.00
5:53 pm 17:53 Sunny 93 33.9 64 17.8 38 38 SSW 3 6 29.87 1011 10 16 0.00 0.00
6:53 pm 18:53 Clear 85 29.4 67 19.4 55 55 Calm 29.88 1012 10 16 0.00 0.00
7:53 pm 19:53 Clear 80 26.7 68 20 67 67 Calm 29.89 1012 10 16 0.00 0.00
8:53 pm 20:53 Clear 78 25.6 68 20 71 71 Calm 29.91 1013 10 16 0.00 0.00
9:53 pm 21:53 Clear 76 24.4 68 20 77 77 Calm 29.91 1013 10 16 0.00 0.00
10:53 pm 22:53 Clear 76 24.4 68 20 77 77 Calm 29.91 1013 10 16 0.00 0.00
11:53 pm 23:53 Clear 75 23.9 68 20 79 79 Calm 29.91 1013 10 16 0.00 0.00

Powered by AerisWeather